Location: Meriden
(44.0740°N, 93.3870°W)
Time: 14:56:56
(UTC-05:00)

Amateur Radio Satellites - All Passes

Search period start: 21 October 2014 14:26
Search period end: 22 October 2014 14:26
Location: Meriden, 44.0740°N, 93.3870°W

Satellite Date Start Highest point End Downlink Frequencies (MHz)
Time Altitude Azimuth
ISS 21 Oct 14:36:03 14:39:12 40° 141° (SE) 14:42:22 145.800 FM
Oscar 10/S400 21 Oct 14:37:35 14:54:22 36° 153° (SSE) 15:18:06 145.825 - 145.975 CW/USB, Beacon 145.810 USB
Uribyol 2 21 Oct 14:37:54 14:43:08 82° 256° (WSW) 14:48:24 436.500 FM
Gurwin Techsat 1B 21 Oct 14:40:46 14:45:55 54° 71° (ENE) 14:51:06 435.225 FM
KITSAT 1 21 Oct 14:41:33 14:49:26 55° 310° (NW) 14:57:23 435.175 FM
ITAMSAT 1 21 Oct 14:42:59 14:48:11 79° 256° (WSW) 14:53:27 435.822 SSB
AO-Echo 21 Oct 14:50:59 14:55:42 53° 260° (W) 15:00:36 ?
TMSAT-1 21 Oct 14:54:30 14:59:38 53° 71° (ENE) 15:04:47 436.925 FM
SO-50 21 Oct 15:08:13 15:12:38 55° 309° (NW) 15:17:13 436.795 FM
UOSAT-12 21 Oct 15:13:18 15:16:39 20° 111° (ESE) 15:20:03 437.025 FM, 437.400 FM
Sapphire 21 Oct 15:13:28 15:18:24 36° 249° (WSW) 15:23:19 437.095 MHz 1200 baud AX-25 AFSK
Oscar 19 21 Oct 15:22:03 15:25:09 16° 270° (W) 15:28:16 437.125 CW, 437.150 USB
AO-27 21 Oct 15:28:29 15:33:03 31° 264° (W) 15:37:41 436.795 MHz FM
Saudisat 1A 21 Oct 15:30:04 15:30:41 10° 28° (NNE) 15:31:19 436.775 MHz
AO-7 21 Oct 15:33:39 15:41:23 46° 61° (ENE) 15:49:08 29.400 - 29.500 MHz
PCSat 21 Oct 15:37:05 15:41:10 22° 253° (WSW) 15:45:14 145.825 MHz
JAS-1B 21 Oct 16:01:03 16:03:20 12° 271° (W) 16:05:33 435.800 - 435.900 CW/SSB
ISS 21 Oct 16:12:48 16:15:56 37° 339° (NNW) 16:19:05 145.800 FM
JAS-2 21 Oct 16:21:01 16:25:01 19° 54° (NE) 16:29:19 435.800 - 435.900 CW/SSB, 435.910 FM
Gurwin Techsat 1B 21 Oct 16:22:16 16:26:12 21° 268° (W) 16:30:10 435.225 FM
Uribyol 2 21 Oct 16:22:48 16:23:24 10° 273° (W) 16:23:59 436.500 FM
Uosat F 21 Oct 16:32:14 16:37:12 67° 73° (ENE) 16:42:13 435.120 FM
TMSAT-1 21 Oct 16:35:54 16:39:52 21° 268° (W) 16:43:51 436.925 FM
KITSAT 1 21 Oct 16:41:13 16:46:53 20° 336° (NNW) 16:52:34 435.175 FM
UOSAT-12 21 Oct 16:51:50 16:56:24 55° 309° (NW) 17:01:04 437.025 FM, 437.400 FM
SO-50 21 Oct 16:52:16 16:54:16 13° 331° (NNW) 16:56:18 436.795 FM
Hamsat 21 Oct 16:57:20 16:59:38 15° 63° (ENE) 17:01:55 145.90 MHz
Saudisat 1A 21 Oct 17:07:08 17:11:24 44° 49° (NE) 17:15:38 436.775 MHz
AO-7 21 Oct 17:26:23 17:34:10 45° 260° (W) 17:42:02 29.400 - 29.500 MHz
ISS 21 Oct 17:50:36 17:53:17 22° 359° (N) 17:55:57 145.800 FM
OPAL 21 Oct 17:59:45 18:04:17 34° 99° (E) 18:08:46 ?
AO-40 21 Oct 17:59:52 23:48:49 39° 184° (S) 05:34:34 Beacon 2401.320
JAS-2 21 Oct 18:03:18 18:09:06 84° 256° (WSW) 18:15:44 435.800 - 435.900 CW/SSB, 435.910 FM
Uosat F 21 Oct 18:13:33 18:16:28 15° 270° (W) 18:19:24 435.120 FM
Hamsat 21 Oct 18:30:58 18:35:08 57° 260° (W) 18:39:17 145.90 MHz
UOSAT-12 21 Oct 18:35:27 18:37:37 13° 331° (NNW) 18:39:47 437.025 FM, 437.400 FM
KITSAT 1 21 Oct 18:41:42 18:46:04 15° 7° (N) 18:50:26 435.175 FM
Saudisat 1A 21 Oct 18:47:14 18:50:43 23° 247° (WSW) 18:54:10 436.775 MHz
SO-67 21 Oct 19:05:19 19:08:33 40° 73° (ENE) 19:11:49 435.3500 MHz FM
ISS 21 Oct 19:27:32 19:30:39 34° 19° (NNE) 19:33:44 145.800 FM
STRAND 1 21 Oct 19:38:08 19:42:58 39° 98° (E) 19:47:45 ?
OPAL 21 Oct 19:38:45 19:43:06 31° 297° (WNW) 19:47:24 ?
JAS-2 21 Oct 19:53:01 19:55:26 12° 278° (W) 19:57:58 435.800 - 435.900 CW/SSB, 435.910 FM
HO-68 21 Oct 20:07:23 20:13:37 34° 60° (ENE) 20:19:54 435.675 MHz FM
Oscar 11 21 Oct 20:37:02 20:37:59 11° 59° (ENE) 20:38:56 145.825 FM, Beacon 2401.500 USB
KITSAT 1 21 Oct 20:37:44 20:44:40 30° 36° (NE) 20:51:32 435.175 FM
SO-67 21 Oct 20:40:18 20:41:45 12° 269° (W) 20:43:12 435.3500 MHz FM
ISS 21 Oct 21:04:12 21:07:26 48° 218° (SW) 21:10:40 145.800 FM
ZACube-1 21 Oct 21:15:13 21:17:18 13° 61° (ENE) 21:19:21 437.345 MHz
STRAND 1 21 Oct 21:17:37 21:22:00 29° 295° (WNW) 21:26:21 ?
UKube-1 21 Oct 21:24:49 21:28:50 37° 69° (ENE) 21:32:52 145.840 MHz, 145.915 MHz
HO-68 21 Oct 21:54:06 22:01:02 53° 259° (W) 22:08:03 435.675 MHz FM
SO-50 21 Oct 21:58:04 22:02:23 32° 44° (NE) 22:06:44 436.795 FM
FUNcube-1 21 Oct 21:58:25 22:02:31 33° 69° (ENE) 22:06:34 145.950 - 145.970 MHz USB
Oscar 11 21 Oct 22:09:09 22:13:29 87° 257° (WSW) 22:17:51 145.825 FM, Beacon 2401.500 USB
RS-15 21 Oct 22:25:54 22:35:42 40° 108° (ESE) 22:45:25 29.354 - 29.394 USB, Beacon 29.352 USB
KITSAT 1 21 Oct 22:32:55 22:41:03 85° 239° (WSW) 22:49:07 435.175 FM
ZACube-1 21 Oct 22:48:28 22:53:05 78° 257° (WSW) 22:57:40 437.345 MHz
UKube-1 21 Oct 23:01:47 23:05:08 22° 266° (W) 23:08:30 145.840 MHz, 145.915 MHz
FUNcube-1 21 Oct 23:34:58 23:38:53 27° 265° (W) 23:42:47 145.950 - 145.970 MHz USB
SO-50 21 Oct 23:38:30 23:43:03 41° 243° (WSW) 23:47:37 436.795 FM
UOSAT-12 21 Oct 23:40:18 23:44:30 30° 44° (NE) 23:48:38 437.025 FM, 437.400 FM
MaSat-1 22 Oct 00:08:51 00:11:45 18° 107° (ESE) 00:14:31 437.345 MHz
KITSAT 1 22 Oct 00:30:11 00:35:16 18° 259° (W) 00:40:21 435.175 FM
RS-15 22 Oct 00:36:34 00:47:27 65° 311° (NW) 00:58:23 29.354 - 29.394 USB, Beacon 29.352 USB
UOSAT-12 22 Oct 01:20:20 01:24:46 41° 243° (WSW) 01:29:07 437.025 FM, 437.400 FM
MaSat-1 22 Oct 01:43:18 01:47:18 42° 301° (WNW) 01:50:56 437.345 MHz
JAS-1B 22 Oct 01:47:11 01:52:10 22° 94° (E) 01:57:43 435.800 - 435.900 CW/SSB
Oscar 19 22 Oct 01:51:10 01:55:00 21° 92° (E) 01:58:48 437.125 CW, 437.150 USB
AO-27 22 Oct 02:03:03 02:04:08 11° 87° (E) 02:05:14 436.795 MHz FM
Oscar 16 22 Oct 02:35:32 02:40:34 54° 100° (E) 02:45:34 437.025 USB, Beacon 2401.1428
Uribyol 2 22 Oct 02:49:33 02:54:12 32° 96° (E) 02:58:48 436.500 FM
RS-15 22 Oct 02:53:21 03:02:26 29° 342° (NNW) 03:11:40 29.354 - 29.394 USB, Beacon 29.352 USB
ITAMSAT 1 22 Oct 02:54:42 02:59:25 33° 96° (E) 03:04:06 435.822 SSB
AO-Echo 22 Oct 02:56:18 03:01:24 46° 99° (E) 03:06:30 ?
Gurwin Techsat 1B 22 Oct 02:56:24 03:00:08 19° 91° (E) 03:03:50 435.225 FM
TMSAT-1 22 Oct 03:09:46 03:13:27 19° 91° (E) 03:17:07 436.925 FM
Oscar 19 22 Oct 03:29:40 03:34:37 51° 290° (WNW) 03:39:33 437.125 CW, 437.150 USB
JAS-1B 22 Oct 03:36:48 03:43:09 70° 288° (WNW) 03:50:42 435.800 - 435.900 CW/SSB
AO-7 22 Oct 03:38:27 03:39:08 10° 84° (E) 03:39:50 29.400 - 29.500 MHz
AO-27 22 Oct 03:39:09 03:44:25 85° 105° (ESE) 03:49:39 436.795 MHz FM
OPAL 22 Oct 03:41:09 03:42:56 12° 53° (NE) 03:44:42 ?
Sapphire 22 Oct 04:14:18 04:18:29 23° 107° (ESE) 04:22:41 437.095 MHz 1200 baud AX-25 AFSK
Oscar 16 22 Oct 04:15:45 04:19:32 21° 298° (WNW) 04:23:18 437.025 USB, Beacon 2401.1428
Uribyol 2 22 Oct 04:28:58 04:33:41 35° 293° (WNW) 04:38:21 436.500 FM
ITAMSAT 1 22 Oct 04:34:13 04:38:53 34° 294° (WNW) 04:43:31 435.822 SSB
Gurwin Techsat 1B 22 Oct 04:35:15 04:40:29 59° 288° (WNW) 04:45:41 435.225 FM
AO-Echo 22 Oct 04:35:35 04:39:54 26° 296° (WNW) 04:44:14 ?
PCSat 22 Oct 04:36:13 04:41:11 38° 112° (ESE) 04:46:11 145.825 MHz
Uosat F 22 Oct 04:39:30 04:42:58 18° 92° (E) 04:46:25 435.120 FM
TMSAT-1 22 Oct 04:48:33 04:53:47 60° 288° (WNW) 04:58:59 436.925 FM
RS-15 22 Oct 05:10:21 05:19:28 28° 17° (NNE) 05:28:48 29.354 - 29.394 USB, Beacon 29.352 USB
JAS-2 22 Oct 05:11:39 05:16:26 17° 86° (E) 05:21:15 435.800 - 435.900 CW/SSB, 435.910 FM
OPAL 22 Oct 05:15:49 05:20:58 75° 71° (ENE) 05:26:05 ?
AO-27 22 Oct 05:20:23 05:23:13 15° 302° (WNW) 05:26:03 436.795 MHz FM
AO-7 22 Oct 05:25:25 05:33:39 60° 103° (ESE) 05:41:50 29.400 - 29.500 MHz
JAS-1B 22 Oct 05:30:10 05:32:56 13° 306° (NW) 05:35:52 435.800 - 435.900 CW/SSB
Sapphire 22 Oct 05:56:13 06:01:31 55° 306° (NW) 06:06:52 437.095 MHz 1200 baud AX-25 AFSK
Hamsat 22 Oct 06:15:38 06:18:53 22° 93° (E) 06:22:08 145.90 MHz
Uosat F 22 Oct 06:17:09 06:22:07 57° 289° (WNW) 06:27:03 435.120 FM
PCSat 22 Oct 06:19:40 06:24:38 36° 311° (NW) 06:29:38 145.825 MHz
JAS-2 22 Oct 06:54:40 07:02:24 82° 104° (ESE) 07:10:16 435.800 - 435.900 CW/SSB, 435.910 FM
STRAND 1 22 Oct 06:55:24 07:00:28 65° 72° (ENE) 07:05:35 ?
OPAL 22 Oct 06:57:37 07:00:22 14° 268° (W) 07:03:06 ?
AO-7 22 Oct 07:18:45 07:26:02 36° 303° (WNW) 07:33:20 29.400 - 29.500 MHz
RS-15 22 Oct 07:23:37 07:34:38 62° 48° (NE) 07:46:05 29.354 - 29.394 USB, Beacon 29.352 USB
Sapphire 22 Oct 07:43:38 07:46:12 13° 328° (NNW) 07:48:45 437.095 MHz 1200 baud AX-25 AFSK
Hamsat 22 Oct 07:51:07 07:54:55 34° 290° (WNW) 07:58:42 145.90 MHz
SO-67 22 Oct 07:59:53 08:03:09 38° 98° (E) 08:06:23 435.3500 MHz FM
STRAND 1 22 Oct 08:36:57 08:40:07 16° 270° (W) 08:43:19 ?
JAS-2 22 Oct 08:40:45 08:46:38 25° 302° (WNW) 08:52:40 435.800 - 435.900 CW/SSB, 435.910 FM
Saudisat 1A 22 Oct 08:53:51 08:58:11 64° 121° (ESE) 09:02:34 436.775 MHz
HO-68 22 Oct 09:20:24 09:26:29 29° 94° (E) 09:32:30 435.675 MHz FM
SO-67 22 Oct 09:34:01 09:35:48 14° 295° (WNW) 09:37:35 435.3500 MHz FM
RS-15 22 Oct 09:36:25 09:46:39 44° 250° (WSW) 09:57:19 29.354 - 29.394 USB, Beacon 29.352 USB
MaSat-1 22 Oct 09:53:07 09:55:40 32° 57° (ENE) 09:57:58 437.345 MHz
Oscar 11 22 Oct 09:56:36 09:59:09 15° 91° (E) 10:01:42 145.825 FM, Beacon 2401.500 USB
Saudisat 1A 22 Oct 10:34:52 10:38:10 20° 321° (NW) 10:41:29 436.775 MHz
ZACube-1 22 Oct 10:37:30 10:40:25 18° 91° (E) 10:43:16 437.345 MHz
UKube-1 22 Oct 10:47:12 10:51:31 56° 101° (E) 10:55:48 145.840 MHz, 145.915 MHz
HO-68 22 Oct 11:07:31 11:14:34 59° 293° (WNW) 11:21:34 435.675 MHz FM
FUNcube-1 22 Oct 11:22:00 11:26:13 52° 100° (E) 11:30:19 145.950 - 145.970 MHz USB
Oscar 11 22 Oct 11:31:27 11:35:38 51° 288° (WNW) 11:39:48 145.825 FM, Beacon 2401.500 USB
PCSat 22 Oct 11:40:56 11:42:38 11° 29° (NNE) 11:44:19 145.825 MHz
ZACube-1 22 Oct 12:12:58 12:17:03 43° 289° (WNW) 12:21:01 437.345 MHz
Oscar 16 22 Oct 12:18:00 12:20:29 14° 57° (ENE) 12:22:57 437.025 USB, Beacon 2401.1428
UKube-1 22 Oct 12:24:35 12:27:16 16° 298° (WNW) 12:29:56 145.840 MHz, 145.915 MHz
JAS-1B 22 Oct 12:36:50 12:40:42 19° 59° (ENE) 12:44:29 435.800 - 435.900 CW/SSB
HO-68 22 Oct 12:57:42 13:00:49 13° 313° (NW) 13:03:56 435.675 MHz FM
FUNcube-1 22 Oct 12:59:34 13:02:10 16° 298° (WNW) 13:04:44 145.950 - 145.970 MHz USB
Sapphire 22 Oct 12:59:38 13:04:23 30° 46° (NE) 13:09:07 437.095 MHz 1200 baud AX-25 AFSK
KITSAT 1 22 Oct 13:02:19 13:10:08 57° 114° (ESE) 13:17:59 435.175 FM
Oscar 19 22 Oct 13:09:14 13:13:54 36° 67° (ENE) 13:18:34 437.125 CW, 437.150 USB
AO-27 22 Oct 13:21:08 13:24:59 21° 61° (ENE) 13:28:51 436.795 MHz FM
PCSat 22 Oct 13:22:19 13:27:31 44° 52° (NE) 13:32:41 145.825 MHz
ISS 22 Oct 13:47:31 13:50:16 24° 137° (SE) 13:53:02 145.800 FM
Oscar 16 22 Oct 13:53:54 13:59:05 90° 255° (WSW) 14:04:17 437.025 USB, Beacon 2401.1428
SO-50 22 Oct 13:54:31 13:58:48 46° 118° (ESE) 14:03:14 436.795 FM
Uribyol 2 22 Oct 14:08:42 14:13:47 56° 71° (ENE) 14:18:55 436.500 FM
AO-Echo 22 Oct 14:10:44 14:15:32 66° 73° (ENE) 14:20:33 ?
ITAMSAT 1 22 Oct 14:14:01 14:19:07 59° 71° (ENE) 14:24:16 435.822 SSB
